Weather History for Russellville, AR

Change the Weather History Date:

Monday, June 10, 2013

  Actual Average (KHOT) Record (KHOT)
Temperature  
Mean Temperature 77 °F -  
Max Temperature 93 °F 88 °F 101 °F (1953)
Min Temperature 61 °F 64 °F 54 °F (1955)
Cooling Degree Days 12    
Growing Degree Days 27 (Base 50)    
Moisture  
Dew Point 65 °F    
Average Humidity 68    
Maximum Humidity 93    
Minimum Humidity 36    
Precipitation  
Precipitation 0.00 in - - ()
Sea Level Pressure  
Sea Level Pressure 29.89 in    
Wind  
Wind Speed 2 mph (West)    
Max Wind Speed 10 mph    
Max Gust Speed 17 mph    
Visibility 10 miles    
Events      
Averages and records for this station are not official NWS values.
T = Trace of Precipitation, MM = Missing Value Source: NWS Daily Summary

Daily Weather History Graph

Daily Weather History Graph

Search for Another Location

Airport:

Trip Planner

Search our weather history database for the weather conditions in past years. The results will help you decide how hot, cold, wet, or windy it might be!

Date:

Astronomy

Jun. 10, 2013 Rise Set
Actual Time 5:57 AM CDT 8:26 PM CDT
Civil Twilight 5:27 AM CDT 8:56 PM CDT
Nautical Twilight 4:50 AM CDT 9:33 PM CDT
Astronomical Twilight 4:10 AM CDT 10:13 PM CDT
Moon 7:43 AM CDT 9:57 PM CDT
Length of Visible Light 15h 29m
Length of Day
14h 29m
Waxing Crescent, 4% of the Moon is Illuminated
Jun 10
Waxing Crescent
Jun 16
First Quarter
Jun 23
Full
Jun 29
Last Quarter
Jul 8
New

Hourly Weather History & Observations

Time (CDT) Temp. Heat Index Dew Point Humidity Pressure Visibility Wind Dir Wind Speed Gust Speed Precip Events Conditions
12:53 AM 66.0 °F - 62.1 °F 87% 29.88 in 10.0 mi Calm Calm - N/A   Clear
1:53 AM 64.9 °F - 62.1 °F 90% 29.88 in 10.0 mi Calm Calm - N/A   Clear
2:53 AM 64.0 °F - 61.0 °F 90% 29.87 in 9.0 mi Calm Calm - N/A   Partly Cloudy
3:53 AM 62.1 °F - 60.1 °F 93% 29.87 in 8.0 mi Calm Calm - N/A   Partly Cloudy
4:53 AM 62.1 °F - 59.0 °F 90% 29.88 in 8.0 mi Calm Calm - N/A   Partly Cloudy
5:53 AM 61.0 °F - 59.0 °F 93% 29.89 in 7.0 mi Calm Calm - N/A   Partly Cloudy
6:53 AM 63.0 °F - 60.1 °F 90% 29.90 in 6.0 mi Calm Calm - N/A   Partly Cloudy
7:53 AM 69.1 °F - 64.9 °F 87% 29.91 in 10.0 mi Calm Calm - N/A   Clear
8:53 AM 73.9 °F - 64.9 °F 73% 29.92 in 10.0 mi Calm Calm - N/A   Clear
9:53 AM 80.1 °F 81.9 °F 64.9 °F 60% 29.92 in 10.0 mi WNW 3.5 mph - N/A   Clear
10:53 AM 82.9 °F 85.0 °F 66.0 °F 56% 29.92 in 10.0 mi WNW 8.1 mph - N/A   Clear
11:53 AM 86.0 °F 89.4 °F 68.0 °F 55% 29.91 in 10.0 mi Variable 3.5 mph - N/A   Clear
12:53 PM 89.1 °F 92.9 °F 68.0 °F 50% 29.90 in 10.0 mi Variable 6.9 mph - N/A   Clear
1:53 PM 91.0 °F 95.2 °F 68.0 °F 47% 29.89 in 10.0 mi NW 8.1 mph - N/A   Clear
2:53 PM 91.9 °F 95.4 °F 66.9 °F 44% 29.88 in 10.0 mi WNW 8.1 mph - N/A   Clear
3:53 PM 93.0 °F 94.2 °F 63.0 °F 37% 29.86 in 10.0 mi West 10.4 mph 17.3 mph N/A   Clear
4:53 PM 93.9 °F 95.2 °F 63.0 °F 36% 29.86 in 10.0 mi Variable 5.8 mph - N/A   Clear
5:53 PM 93.9 °F 96.1 °F 64.9 °F 38% 29.85 in 10.0 mi SW 5.8 mph - N/A   Clear
6:53 PM 91.9 °F 95.4 °F 66.9 °F 44% 29.85 in 10.0 mi SW 4.6 mph - N/A   Clear
7:53 PM 84.9 °F 90.1 °F 71.1 °F 63% 29.87 in 10.0 mi Calm Calm - N/A   Clear
8:53 PM 79.0 °F - 68.0 °F 69% 29.88 in 10.0 mi Calm Calm - N/A   Clear
9:53 PM 77.0 °F - 68.0 °F 74% 29.89 in 10.0 mi Calm Calm - N/A   Clear
10:53 PM 75.0 °F - 69.1 °F 82% 29.90 in 10.0 mi Calm Calm - N/A   Clear
11:53 PM 73.0 °F - 68.0 °F 84% 29.90 in 10.0 mi Calm Calm - N/A   Clear